Moline, IL

5:14 AM CDT on August 24, 2016 (GMT -0500)
Quad-City International

Weather History for KMLI - July, 2013

Change the Weather History Date:

Wednesday, July 24, 2013

  Actual Average Record
Temperature  
Mean Temperature 67 °F 75 °F  
Max Temperature 78 °F 86 °F 106 °F (1901)
Min Temperature 55 °F 65 °F 54 °F (1947)
Degree Days  
Heating Degree Days 0 0  
Month to date heating degree days 0 0  
Since 1 June heating degree days 27 19  
Since 1 July heating degree days 0 0  
Cooling Degree Days 2 10  
Month to date cooling degree days 242 256  
Year to date cooling degree days 535 546  
Since 1 June cooling degree days 445 470  
Growing Degree Days 16 (Base 50)    
Moisture  
Dew Point 54 °F    
Average Humidity 67    
Maximum Humidity 90    
Minimum Humidity 43    
Precipitation  
Precipitation 0.00 in 0.12 in 2.44 in (2009)
Month to date precipitation 1.36 3.43  
Year to date precipitation 30.65 21.78  
Snow  
Snow 0.00 in 0.00 in - ()
Month to date snowfall 0.0 0.0  
Since 1 June snowfall 0.0 0.0  
Since 1 July snowfall 0.0 0.0  
Snow Depth 0.00 in    
Sea Level Pressure  
Sea Level Pressure 30.04 in    
Wind  
Wind Speed 3 mph (East)    
Max Wind Speed 10 mph    
Max Gust Speed 20 mph    
Visibility 10 miles    
Events      
T = Trace of Precipitation, MM = Missing Value Source: NWS Daily Summary

Daily Weather History Graph

Daily Weather History Graph

Search for Another Location

Airport or City:

Trip Planner

Search our weather history database for the weather conditions in past years. The results will help you decide how hot, cold, wet, or windy it might be!

Date:

Astronomy

Jul. 24, 2013 Rise Set
Actual Time 5:49 AM CDT 8:27 PM CDT
Civil Twilight 5:17 AM CDT 8:58 PM CDT
Nautical Twilight 4:37 AM CDT 9:38 PM CDT
Astronomical Twilight 3:52 AM CDT 10:23 PM CDT
Moon 9:30 PM CDT 8:12 AM CDT
Length of Visible Light 15h 41m
Length of Day
14h 37m
Waning Gibbous, 94% of the Moon is Illuminated
Jul 24
Waning Gibbous
Jul 29
Last Quarter
Aug 6
New
Aug 14
First Quarter
Aug 20
Full

Hourly Weather History & Observations

Time (CDT) Temp. Dew Point Humidity Pressure Visibility Wind Dir Wind Speed Gust Speed Precip Events Conditions
12:52 AM 64.9 °F 55.0 °F 70% 29.98 in 10.0 mi ENE 8.1 mph - N/A   Clear
1:52 AM 60.1 °F 55.9 °F 86% 29.99 in 10.0 mi ESE 4.6 mph - N/A   Clear
2:52 AM 59.0 °F 54.0 °F 83% 30.00 in 10.0 mi ESE 4.6 mph - N/A   Clear
3:52 AM 57.0 °F 54.0 °F 89% 30.00 in 10.0 mi ESE 4.6 mph - N/A   Clear
4:52 AM 57.0 °F 54.0 °F 89% 30.02 in 10.0 mi East 4.6 mph - N/A   Clear
5:52 AM 57.0 °F 54.0 °F 89% 30.04 in 10.0 mi Calm Calm - N/A   Clear
6:52 AM 59.0 °F 55.9 °F 90% 30.05 in 10.0 mi Calm Calm - N/A   Clear
7:52 AM 63.0 °F 55.9 °F 78% 30.06 in 10.0 mi ESE 6.9 mph - N/A   Clear
8:52 AM 64.9 °F 55.0 °F 70% 30.05 in 10.0 mi East 8.1 mph - N/A   Clear
9:52 AM 68.0 °F 53.1 °F 59% 30.06 in 10.0 mi ENE 9.2 mph - N/A   Clear
10:52 AM 70.0 °F 53.1 °F 55% 30.06 in 10.0 mi Variable 4.6 mph - N/A   Partly Cloudy
11:52 AM 73.0 °F 52.0 °F 48% 30.07 in 10.0 mi NE 5.8 mph - N/A   Clear
12:52 PM 73.9 °F 53.1 °F 48% 30.06 in 10.0 mi North 5.8 mph - N/A   Scattered Clouds
1:52 PM 73.0 °F 52.0 °F 48% 30.06 in 10.0 mi NNE 5.8 mph - N/A   Mostly Cloudy
2:52 PM 75.9 °F 53.1 °F 45% 30.04 in 10.0 mi Calm Calm - N/A   Partly Cloudy
3:52 PM 75.9 °F 51.1 °F 42% 30.04 in 10.0 mi Calm Calm - N/A   Mostly Cloudy
4:52 PM 73.9 °F 51.1 °F 45% 30.04 in 10.0 mi Variable 5.8 mph - N/A   Overcast
5:52 PM 75.0 °F 51.1 °F 43% 30.03 in 10.0 mi ESE 3.5 mph - N/A   Clear
6:52 PM 72.0 °F 53.1 °F 51% 30.03 in 10.0 mi SE 3.5 mph - N/A   Clear
7:52 PM 66.9 °F 57.9 °F 73% 30.03 in 10.0 mi SSE 4.6 mph - N/A   Clear
8:52 PM 64.9 °F 57.9 °F 78% 30.03 in 10.0 mi Calm Calm - N/A   Clear
9:52 PM 64.0 °F 55.9 °F 75% 30.04 in 10.0 mi Calm Calm - N/A   Clear
10:52 PM 61.0 °F 57.0 °F 87% 30.06 in 10.0 mi Calm Calm - N/A   Clear
11:52 PM 60.1 °F 55.9 °F 86% 30.05 in 10.0 mi Calm Calm - N/A   Clear